Zurück zum Katalog

METEOR 1-27 DEB

LostPO
NORAD 38533·DEBRIS·🇷🇺 Russia

Gestartet Apr 5, 1977 von Plesetsk Cosmodrome

Loading…

Nächste Überflüge (nächste 24 Stunden)

TLE

VeraltetSource: Space-Track

Epoche: Jul 11, 2022, 03:47 UTC

1 38533U 77024D   22192.15783265  .00004509  00000-0  16704-2 0  9993
2 38533  81.2389 354.4963 0040003 214.1373 145.7237 14.31730610592514

Verfolge METEOR 1-27 DEB in Echtzeit mit AllMySat

Download on the App Store